OPS 4682 DEB, 38416

Orbit data source: Space-Track

OPS 4682 DEB, 38416 is space debris in LEO originally from a launch on Sat, 03 Apr 1965 UTC launched from the Air Force Western Test Range (AFWTR). Debris objects in space refer to the collection of defunct objects orbiting the Earth. Examples of debris include non-operational satellites, rocket bodies, and fragments generated from explosions, collisions, or faulty payload assembly.

Loading next visibility...
Identifier
38416, 1965-027DV
Orbit
LEO
Country
Flag of USUS
Related business
Manufacturer
Unknown
Mission
Spacecraft
Bus & Motor
Unknown
Mass
Unknown
Launch date (UTC)
1965-04-03 (61 years ago)
Launch vehicle
Unknown
Launch site
Air Force Western Test Range (AFWTR)
Object type
Payload
Rocket body
Debris
Shape & HBR
Unknown shape, 0.1 m
Radar Cross Section
Small (<0.1 m²)

Expand to show TLE details & history
Last TLE update: 1 day ago

TLE from 1 day ago
0 OPS 4682 DEB
1 38416U 65027DV  25292.46387008 -.00000025  00000-0 -11612-3 0  9991
2 38416  90.2465   4.2784 0034355  56.2354 304.2030 12.95767900603546
Epoch: 2025-10-19T11:07Z
TLE epoch observation values (Epoch: 2025-10-19T11:07:58.374Z)
Latitude
-0.0001°
Longitude
169.10501°
Altitude
1,266.863 km
Speed
7.229 km/s
True Right ascension
00h 17m 06s
True Declination
0° 00' 00"
Sunlit
Object was in full shadow at epoch
Visualization orbit readout
Latitude
Unknown
Longitude
Unknown
Altitude
Unknown
Speed
Unknown
Apparent Right ascension
Unknown
Apparent Declination
Unknown
Sunlit
N/A
Visualization observer readout
Local Sidereal Time
11:36:06
Azimuth
Unknown
Elevation
Unknown
Doppler factor
Unknown
Orbital elements
Apogee altitude
1,302.142 km
Perigee altitude
1,249.551 km
Semi-major axis
7,653.984 km
Eccentricity
0.00344
Inclination
90.2465°
RAAN
4.2784°
Arg. of periapsis
56.2354°
True anomaly
303.87662°
Mean anomaly
304.203°
Eccentric anomaly
304.03989°
Mean motion
3.24125 °/min
Orbital period
111.07 mins
BSTAR
-0.00011612
Loading maneuver chart data...
Computing Atmospheric mass density...
Loading historical data...
Loading historical data...
Loading historical data...
Loading historical data...
Loading historical data...
Loading historical data...
Loading historical data...

Documentation

Showing up to 5 results
|